Weather History for Tyler, TX

Change the Weather History Date:

Thursday, November 24, 2011

  Actual Average Record
Temperature  
Mean Temperature 48 °F 52 °F  
Max Temperature 53 °F 62 °F 85 °F (1910)
Min Temperature 43 °F 43 °F 22 °F (1970)
Degree Days  
Heating Degree Days 17 13  
Month to date heating degree days 143 213  
Since 1 July heating degree days 209 290  
Cooling Degree Days 0 0  
Month to date cooling degree days 55 14  
Year to date cooling degree days 3676 2407  
Moisture  
Dew Point 47 °F    
Average Humidity 92    
Maximum Humidity 100    
Minimum Humidity 83    
Precipitation  
Precipitation 0.00 in 0.13 in 3.73 in (1944)
Month to date precipitation 2.90 3.35  
Year to date precipitation 18.78 40.80  
Snow  
Snow 0.00 in - - ()
Month to date snowfall 0.0  
Since 1 July snowfall 0.0  
Since 1 September snowfall 0.0  
Snow Depth 0.00 in    
Sea Level Pressure  
Sea Level Pressure 30.29 in    
Wind  
Wind Speed 6 mph (ESE)    
Max Wind Speed 12 mph    
Max Gust Speed 14 mph    
Visibility 3 miles    
Events Fog    
T = Trace of Precipitation, MM = Missing Value Source: NWS Daily Summary

Daily Weather History Graph

Daily Weather History Graph

Search for Another Location

Airport:

Trip Planner

Search our weather history database for the weather conditions in past years. The results will help you decide how hot, cold, wet, or windy it might be!

Date:

Astronomy

Nov. 24, 2011 Rise Set
Actual Time 6:58 AM CST 5:17 PM CST
Civil Twilight 6:32 AM CST 5:43 PM CST
Nautical Twilight 6:02 AM CST 6:13 PM CST
Astronomical Twilight 5:32 AM CST 6:43 PM CST
Moon 6:16 AM CST (11/24) 4:51 PM CST (11/24)
Length of Visible Light 11h 11m
Length of Day
10h 18m
Waning Crescent, 0% of the Moon is Illuminated
Nov 24
Waning Crescent
Nov 25
New
Dec 2
First Quarter
Dec 10
Full
Dec 17
Last Quarter

Hourly Weather History & Observations

Time (CST) Temp. Windchill Dew Point Humidity Pressure Visibility Wind Dir Wind Speed Gust Speed Precip Events Conditions
12:53 AM 48.0 °F - 46.0 °F 93% 30.28 in 5.0 mi SE 3.5 mph - N/A   Clear
1:51 AM 48.2 °F - 44.6 °F 87% 30.29 in 5.0 mi Calm Calm - 0.01 in   Scattered Clouds
1:53 AM 48.0 °F - 46.0 °F 93% 30.29 in 5.0 mi East 3.5 mph - 0.01 in   Scattered Clouds
2:00 AM 48.2 °F - 46.4 °F 93% 30.29 in 4.0 mi East 6.9 mph - N/A   Mostly Cloudy
2:03 AM 48.2 °F - 46.4 °F 93% 30.29 in 1.5 mi East 9.2 mph - N/A   Mostly Cloudy
2:12 AM 46.4 °F 44.3 °F 46.4 °F 100% 30.29 in 0.8 mi East 4.6 mph - N/A   Overcast
2:45 AM 46.4 °F 44.3 °F 46.4 °F 100% 30.30 in 0.2 mi East 4.6 mph - N/A Fog Fog
2:53 AM 46.9 °F - 46.9 °F 100% 30.30 in 0.2 mi East 5.8 mph - N/A Fog Fog
3:19 AM 46.4 °F 44.3 °F 46.4 °F 100% 30.30 in 0.2 mi East 4.6 mph - N/A Fog Fog
3:46 AM 46.4 °F 43.5 °F 46.4 °F 100% 30.30 in 0.2 mi ENE 5.8 mph - N/A Fog Fog
3:53 AM 46.4 °F 42.9 °F 46.4 °F 100% 30.30 in 0.2 mi ENE 6.9 mph - N/A Fog Fog
4:44 AM 46.4 °F 43.5 °F 44.6 °F 93% 30.30 in 0.5 mi East 5.8 mph - N/A Fog Fog
4:53 AM 46.4 °F 42.9 °F 44.6 °F 93% 30.30 in 0.2 mi ENE 6.9 mph - N/A Fog Fog
5:28 AM 46.4 °F 44.3 °F 46.4 °F 100% 30.31 in 0.5 mi East 4.6 mph - N/A Fog Fog
5:42 AM 46.4 °F 43.5 °F 44.6 °F 93% 30.30 in 0.2 mi NE 5.8 mph - N/A Fog Fog
5:53 AM 46.0 °F 43.1 °F 46.0 °F 100% 30.30 in 0.2 mi East 5.8 mph - N/A Fog Fog
6:20 AM 46.4 °F 42.9 °F 46.4 °F 100% 30.31 in 0.5 mi ENE 6.9 mph - N/A Fog Fog
6:53 AM 46.9 °F - 46.9 °F 100% 30.30 in 0.5 mi East 8.1 mph - N/A Fog Fog
7:24 AM 46.4 °F 43.5 °F 46.4 °F 100% 30.32 in 0.2 mi East 5.8 mph - N/A Fog Fog
7:53 AM 46.9 °F - 46.9 °F 100% 30.33 in 0.5 mi SE 5.8 mph - N/A Fog Fog
8:45 AM 48.2 °F - 48.2 °F 100% 30.34 in 1.0 mi ESE 6.9 mph - N/A   Overcast
8:53 AM 48.0 °F - 48.0 °F 100% 30.34 in 1.0 mi SE 9.2 mph - N/A   Overcast
9:05 AM 48.2 °F - 48.2 °F 100% 30.35 in 0.8 mi ESE 9.2 mph - N/A   Overcast
9:49 AM 48.2 °F - 48.2 °F 100% 30.36 in 1.0 mi SE 5.8 mph - N/A   Overcast
9:53 AM 48.9 °F - 48.9 °F 100% 30.36 in 1.2 mi SE 8.1 mph - N/A   Overcast
10:16 AM 48.2 °F - 48.2 °F 100% 30.36 in 2.5 mi SSE 6.9 mph - N/A   Overcast
10:45 AM 48.2 °F - 48.2 °F 100% 30.36 in 3.0 mi SSE 5.8 mph - N/A   Overcast
10:53 AM 48.9 °F - 48.9 °F 100% 30.36 in 3.0 mi SSE 4.6 mph - N/A   Overcast
11:53 AM 50.0 °F - 48.9 °F 96% 30.33 in 5.0 mi South 4.6 mph - N/A   Overcast
12:53 PM 51.8 °F - 48.2 °F 88% 30.31 in 5.0 mi SSE 4.6 mph - N/A   Overcast
1:53 PM 51.8 °F - 48.2 °F 88% 30.28 in 5.0 mi SE 5.8 mph - N/A   Overcast
2:30 PM 51.8 °F - 50.0 °F 94% 30.26 in 7.0 mi SE 5.8 mph - N/A   Overcast
2:53 PM 52.0 °F - 48.9 °F 89% 30.27 in 7.0 mi ESE 8.1 mph - N/A   Overcast
3:53 PM 52.0 °F - 48.9 °F 89% 30.26 in 7.0 mi SE 8.1 mph - N/A   Overcast
4:53 PM 52.0 °F - 48.9 °F 89% 30.24 in 6.0 mi SE 10.4 mph - N/A   Overcast
5:53 PM 52.0 °F - 48.0 °F 86% 30.25 in 8.0 mi SE 9.2 mph - N/A   Overcast
6:53 PM 51.1 °F - 48.0 °F 89% 30.26 in 9.0 mi SSE 5.8 mph - N/A   Overcast
7:27 PM 51.8 °F - 46.4 °F 82% 30.26 in 10.0 mi SSE 8.1 mph - N/A   Overcast
7:53 PM 51.1 °F - 46.9 °F 86% 30.26 in 10.0 mi SE 6.9 mph - N/A   Overcast
8:35 PM 48.2 °F - 46.4 °F 93% 30.26 in 8.0 mi SSE 3.5 mph - N/A   Scattered Clouds
8:53 PM 46.9 °F - 45.0 °F 93% 30.26 in 8.0 mi South 3.5 mph - N/A   Clear
9:53 PM 46.9 °F - 45.0 °F 93% 30.24 in 6.0 mi SSE 3.5 mph - N/A   Clear
10:53 PM 46.0 °F 44.8 °F 44.1 °F 93% 30.21 in 5.0 mi ESE 3.5 mph - N/A   Clear
11:23 PM 44.6 °F - 42.8 °F 93% 30.22 in 5.0 mi Calm Calm - N/A   Partly Cloudy
11:27 PM 44.6 °F - 42.8 °F 93% 30.22 in 1.0 mi Calm Calm - N/A   Mist
11:34 PM 44.6 °F - 42.8 °F 93% 30.21 in 0.5 mi Calm Calm - N/A Fog Fog
11:43 PM 44.6 °F - 42.8 °F 93% 30.21 in 2.0 mi Calm Calm - N/A   Mostly Cloudy
11:53 PM 43.0 °F - 42.1 °F 97% 30.21 in 4.0 mi Calm Calm - N/A   Mostly Cloudy